Weather History for Martha's Vineyard, MA

Change the Weather History Date:

Wednesday, October 30, 2013

  Actual Average Record
Temperature  
Mean Temperature 45 °F -  
Max Temperature 60 °F 58 °F 72 °F (1971)
Min Temperature 30 °F 40 °F 27 °F (1959)
Degree Days  
Heating Degree Days 20    
Moisture  
Dew Point 39 °F    
Average Humidity 77    
Maximum Humidity 92    
Minimum Humidity 51    
Precipitation  
Precipitation 0.00 in - - ()
Sea Level Pressure  
Sea Level Pressure 30.27 in    
Wind  
Wind Speed 3 mph (West)    
Max Wind Speed 13 mph    
Max Gust Speed 17 mph    
Visibility 10 miles    
Events      
Averages and records for this station are not official NWS values.
T = Trace of Precipitation, MM = Missing Value Source: NWS Daily Summary

Daily Weather History Graph

Daily Weather History Graph

Search for Another Location

Airport:

Trip Planner

Search our weather history database for the weather conditions in past years. The results will help you decide how hot, cold, wet, or windy it might be!

Date:

Astronomy

Oct. 30, 2013 Rise Set
Actual Time 7:11 AM EDT 5:39 PM EDT
Civil Twilight 6:43 AM EDT 6:08 PM EDT
Nautical Twilight 6:10 AM EDT 6:40 PM EDT
Astronomical Twilight 5:38 AM EDT 7:13 PM EDT
Moon 2:54 AM EDT (10/30) 3:25 PM EDT (10/30)
Length of Visible Light 11h 25m
Length of Day
10h 27m
Waning Crescent, 17% of the Moon is Illuminated
Oct 30
Waning Crescent
Nov 3
New
Nov 10
First Quarter
Nov 17
Full
Nov 25
Last Quarter

Hourly Weather History & Observations

Time (EDT) Temp. Windchill Dew Point Humidity Pressure Visibility Wind Dir Wind Speed Gust Speed Precip Events Conditions
12:53 AM 30.9 °F - 28.9 °F 92% 30.35 in 10.0 mi Calm Calm - N/A   Clear
1:53 AM 30.9 °F - 28.9 °F 92% 30.34 in 10.0 mi Calm Calm - N/A   Clear
2:53 AM 30.0 °F - 28.0 °F 92% 30.33 in 10.0 mi Calm Calm - N/A   Clear
3:53 AM 30.0 °F - 28.0 °F 92% 30.31 in 10.0 mi Calm Calm - N/A   Clear
4:53 AM 32.0 °F - 30.0 °F 92% 30.31 in 10.0 mi Calm Calm - N/A   Clear
5:53 AM 34.0 °F - 30.9 °F 89% 30.30 in 10.0 mi Calm Calm - N/A   Scattered Clouds
6:53 AM 35.1 °F - 33.1 °F 92% 30.30 in 10.0 mi Calm Calm - N/A   Overcast
7:53 AM 39.9 °F - 37.0 °F 89% 30.30 in 10.0 mi Calm Calm - N/A   Overcast
8:53 AM 46.9 °F - 43.0 °F 86% 30.30 in 10.0 mi Calm Calm - N/A   Overcast
9:53 AM 53.1 °F - 39.9 °F 61% 30.30 in 10.0 mi West 3.5 mph - N/A   Overcast
10:53 AM 55.9 °F - 41.0 °F 57% 30.29 in 10.0 mi West 8.1 mph - N/A   Overcast
11:53 AM 55.9 °F - 42.1 °F 60% 30.29 in 10.0 mi WNW 4.6 mph - N/A   Overcast
12:53 PM 55.9 °F - 42.1 °F 60% 30.27 in 10.0 mi SW 8.1 mph - N/A   Overcast
1:53 PM 60.1 °F - 42.1 °F 51% 30.23 in 10.0 mi SSW 12.7 mph 17.3 mph N/A   Overcast
2:53 PM 57.9 °F - 42.1 °F 56% 30.22 in 10.0 mi West 12.7 mph - N/A   Mostly Cloudy
3:53 PM 59.0 °F - 43.0 °F 55% 30.21 in 10.0 mi WSW 12.7 mph 17.3 mph N/A   Partly Cloudy
4:53 PM 57.0 °F - 44.1 °F 62% 30.21 in 10.0 mi SW 6.9 mph - N/A   Overcast
5:53 PM 55.9 °F - 45.0 °F 67% 30.22 in 10.0 mi SW 5.8 mph - N/A   Overcast
6:53 PM 55.9 °F - 45.0 °F 67% 30.23 in 10.0 mi WSW 4.6 mph - N/A   Overcast
7:53 PM 54.0 °F - 46.0 °F 75% 30.24 in 10.0 mi West 3.5 mph - N/A   Mostly Cloudy
8:53 PM 50.0 °F - 45.0 °F 83% 30.24 in 10.0 mi WSW 3.5 mph - N/A   Scattered Clouds
9:53 PM 44.1 °F 42.5 °F 39.9 °F 85% 30.25 in 10.0 mi North 3.5 mph - N/A   Mostly Cloudy
10:09 PM 46.4 °F 45.2 °F 42.8 °F 87% 30.25 in 10.0 mi North 3.5 mph - N/A   Overcast
10:51 PM 48.2 °F - 44.6 °F 87% 30.25 in 10.0 mi NE 4.6 mph - N/A   Mostly Cloudy
10:53 PM 48.9 °F - 45.0 °F 86% 30.25 in 10.0 mi NE 4.6 mph - N/A   Mostly Cloudy
11:53 PM 43.0 °F - 39.9 °F 89% 30.24 in 9.0 mi Calm Calm - N/A   Clear